015  
ASUS46 KEKA 230514  
RWREKA  
EUREKA AREA WEATHER ROUNDUP  
NATIONAL WEATHER SERVICE EUREKA CA  
1000 PM PDT MON OCT 22 2018  
 
NOTE: "FAIR" INDICATES FEW OR NO CLOUDS BELOW 12,000 FEET WITH NO  
SIGNIFICANT WEATHER AND/OR S TO VISIBILITY
.  
 
SOUTHWEST OREGON...  
 
CITY SKY/WX TMP DP RH WIND PRES REMARKS
 
MEDFORD CLEAR 57 35 43 CALM 29.89R  
KLAMATH FALLS CLEAR 38 24 57 VRB3 29.99R  
NORTH BEND CLOUDY 52 48 86 S9 29.97R  
ROSEBURG CLEAR 56 46 69 CALM 29.89R  
SEXTON SUMMIT CLEAR 58 26 29 CALM 29.98R  
BROOKINGS NOT AVBL  
 
NORTHWEST CALIFORNIA...  
 
CITY SKY/WX TMP DP RH WIND PRES REMARKS
 
CRESCENT CITY CLOUDY 52 48 86 SE7 29.98F  
MCKINLEYVILLE CLOUDY 51 49 92 E5 29.97F  
EUREKA CLOUDY 52 32 46 SE3 29.96F  
FORTUNA CLOUDY 52 50 93 CALM 29.98S  
WEAVERVILLE N/A 46 28 49 CALM 29.96R  
TRINITY CENTER NOT AVBL  
UKIAH CLEAR 54 45 71 NW3 29.94R  
 
NORTH & CENTRAL CALIFORNIA...  
 
CITY SKY/WX TMP DP RH WIND PRES REMARKS
 
YREKA CLEAR 52 20 28 E3 29.95R  
MOUNT SHASTA CLEAR 44 29 55 CALM 29.99R  
REDDING CLEAR 59 34 39 N5 29.89R  
RED BLUFF CLEAR 56 38 50 CALM 29.89R  
CHICO N/A 64 27 24 SE5 29.90R  
YUBA CITY N/A 57 48 72 E5 29.90R  
SACRAMENTO CLEAR 57 48 72 SW6 29.91R  
SANTA ROSA CLEAR 49 47 93 CALM 29.96R  
NAPA CLEAR 53 48 83 SW7 29.97R  
SAN FRANCISCO PTCLDY 56 48 74 W8 29.97R  
OAKLAND PTCLDY 56 50 80 W8 29.98R  
SALINAS CLOUDY 58 52 80 NW9 29.97S  
MONTEREY MOCLDY 58 50 75 S3 29.99R  
 

 
 
 
CLICK HERE TO GO TO PREVIOUS BULLETINS.

The Nexlab CA Page Main Text Page